YAOGAN-27 (40878 NORAD) Tracking and Keplerian Element Data

This shows tracking and keplerian element data for the satellite.

Feedback or suggestion? Click here.




ElementValue
Catalog40878
NameYAOGAN-27
Epoch Orbit45365
Epoch Day35.16313571
Epoch Year2025
RAAN39.0917
Inclination100.0846
Eccentricity0.0007649
Argument of Perigee285.3022
Mean Anonmoly74.7246
Mean Motion13.16040517
Decay Rate-1.3E-07
L11 40878U 15040A 25035.16313571 -.00000013 00000+0 76550-4 0 9990
L22 40878 100.0846 39.0917 0007649 285.3022 74.7246 13.16040517453656



Live tracking and technical data element details for YAOGAN-27 (NORAD 40878). YAOGAN-27 can be tracked NOW for your location showing map with azimuth and elevation plus other details from your city location.







IsCatalogInMostPopularTable: catalog: 40878, numindb: 537
Update: records affected: 1



GetName: 40878 YAOGAN-27

Hit Count: updated at: Thu, 15 May 2025 20:18:31 GMT